Theta_e
331 332 337 342 346 348 350 349 350 350 350 350 349 349 349 349 349 349 348 348 348 348 348 347 347 347 347 348 347 347 347 348 347 348 348 348 348 347 348 348 348 348 348 349 348 348 348 348 348 348 347 347 346 344 344 343 341 339 337 337 336 335 336 339 341 341 342 342 344 346 348 351 351 351 350 349 349 350 349 349 350 350 351 351 352
331 332 338 343 347 348 349 350 350 350 350 349 349 349 349 348 349 349 348 348 347 348 347 347 347 347 347 347 347 348 348 348 347 347 346 347 347 347 347 347 347 347 347 347 347 347 345 345 345 344 344 343 342 341 340 339 338 337 335 334 335 333 333 334 335 336 338 338 338 339 340 346 350 351 349 348 349 349 348 348 348 350 350 352 352
333 333 338 341 346 348 349 349 349 350 350 349 349 349 349 348 348 348 348 348 347 348 347 347 347 348 347 347 347 347 347 347 347 345 345 345 345 345 345 345 346 346 346 347 346 345 343 342 341 341 340 339 339 338 337 337 336 335 333 333 332 331 331 332 332 333 335 335 334 334 335 338 345 350 350 350 349 349 347 347 348 348 349 351 350
331 334 337 340 344 346 350 350 349 349 349 349 348 349 349 348 348 348 348 347 348 347 347 347 347 348 348 347 346 347 346 346 345 344 343 342 342 342 342 343 343 345 344 345 343 342 341 340 339 339 338 337 336 336 335 334 333 333 332 331 331 330 330 330 331 332 333 331 330 330 334 338 341 346 349 350 350 349 348 347 348 348 349 350 350
332 335 338 342 346 345 349 350 350 349 349 349 348 348 348 348 348 348 348 347 347 347 347 347 347 347 347 347 346 346 345 344 343 342 342 341 340 341 341 342 342 341 342 342 342 340 339 338 338 337 335 335 334 333 333 332 332 331 330 329 329 330 330 331 332 331 331 329 328 329 333 336 339 341 349 350 350 348 348 347 347 348 348 348 348
333 335 339 342 345 346 346 349 349 349 349 349 348 347 348 347 347 347 346 347 346 346 347 347 347 346 346 345 345 344 343 342 341 340 339 339 339 339 340 340 341 340 341 341 339 338 337 336 336 336 333 332 332 332 332 332 331 330 329 328 329 329 330 331 330 329 327 326 326 331 334 336 336 339 348 348 349 347 348 347 347 347 347 348 348
333 336 339 342 344 344 343 349 349 349 349 349 348 348 347 347 347 346 346 346 346 347 347 347 347 346 346 345 344 343 342 340 339 338 338 338 338 338 339 339 339 338 338 338 337 336 335 334 334 333 332 330 330 331 331 330 329 329 329 327 327 328 328 328 326 326 324 324 327 330 334 335 337 340 346 347 348 348 347 347 347 347 347 347 347
334 336 339 341 342 342 343 348 349 349 348 348 348 347 347 346 346 346 346 346 346 346 347 347 346 346 345 345 343 342 341 339 337 337 337 337 337 337 338 338 338 337 336 335 335 334 333 333 332 331 331 329 329 329 328 327 327 328 327 326 326 326 326 325 323 322 321 320 325 329 333 335 338 343 347 348 347 348 348 348 348 348 347 348 347
333 336 339 340 341 340 343 346 348 347 347 347 347 347 346 347 346 346 346 346 346 346 346 346 345 344 344 343 342 341 340 338 336 335 335 335 335 336 336 336 336 335 334 334 334 333 332 331 331 330 329 329 329 328 327 326 325 326 326 325 324 325 324 322 320 317 316 319 320 325 332 335 338 344 346 347 346 346 346 346 346 347 348 346 346
333 335 338 338 339 338 341 346 347 347 347 347 347 346 347 346 346 346 346 346 346 346 344 344 344 343 342 341 340 340 339 337 335 334 333 333 334 334 335 334 333 333 333 332 332 331 331 331 329 328 328 328 327 327 325 325 324 324 324 323 323 323 322 320 317 315 315 318 320 322 328 331 338 343 344 346 345 344 341 341 341 341 342 342 342
331 333 335 335 335 338 343 347 346 347 347 346 347 346 346 346 345 346 345 345 344 343 343 342 342 341 340 340 339 338 338 336 334 332 331 331 332 333 333 332 332 332 332 331 331 331 330 330 329 327 327 326 326 325 324 324 323 322 322 322 322 322 320 316 313 313 315 317 320 322 325 329 336 340 342 343 342 341 339 340 340 340 340 340 340
330 330 330 331 330 336 343 346 346 347 347 346 346 345 345 344 344 343 344 343 343 342 342 342 341 340 339 338 338 337 336 334 331 330 330 329 331 331 331 331 331 331 331 330 330 330 329 329 328 327 326 325 324 323 322 322 322 320 320 320 320 319 316 313 311 312 314 316 319 321 325 329 334 336 339 340 340 339 338 338 338 339 339 339 339
328 327 327 328 331 334 340 344 345 346 346 346 345 344 344 343 343 342 342 342 342 341 341 341 340 339 338 336 336 336 334 332 330 329 328 329 329 329 330 330 330 330 330 330 330 330 330 329 328 327 326 324 323 322 321 320 320 319 318 317 317 316 314 311 310 312 313 316 318 319 323 329 335 335 337 338 338 337 337 337 337 338 338 338 337
326 325 325 326 328 329 335 340 342 345 345 344 344 343 343 342 342 342 341 341 341 340 340 339 339 337 336 334 334 333 330 330 330 329 329 328 329 329 328 328 329 329 329 330 330 329 328 327 326 326 324 323 322 321 320 319 318 317 316 315 314 312 308 308 309 311 312 314 317 318 322 327 332 333 334 335 335 335 335 335 336 336 336 336 335
327 324 324 325 327 331 328 335 338 340 342 343 343 343 343 342 342 342 341 340 340 341 339 338 336 334 333 333 332 331 329 329 329 329 328 328 328 328 328 329 329 329 329 329 330 329 328 327 325 324 324 322 321 319 318 318 317 315 314 313 312 310 306 304 307 309 310 312 315 318 322 327 330 331 331 332 333 333 333 333 334 334 334 334 333
323 322 322 324 326 328 332 330 332 336 337 340 340 341 342 342 342 341 340 339 339 337 337 336 333 333 332 331 331 330 329 329 329 328 328 328 328 329 329 329 328 328 328 328 327 326 326 325 324 323 322 321 320 318 317 316 315 314 313 311 310 308 305 302 305 307 309 310 313 317 320 326 328 329 330 331 331 331 331 331 332 332 332 332 332
320 320 322 323 323 325 329 331 331 329 331 333 334 337 338 339 340 340 338 337 337 335 335 334 333 331 330 330 330 329 328 328 328 328 327 327 328 328 327 327 327 327 327 326 325 324 324 324 323 322 321 320 318 317 316 315 314 312 311 309 309 307 304 301 302 304 307 309 310 315 320 327 327 328 328 328 328 328 329 329 330 330 330 330 330
318 319 321 322 322 324 325 327 329 332 334 331 328 330 332 334 335 335 335 335 335 335 334 333 333 332 331 330 330 329 328 328 328 327 327 326 326 326 326 326 326 325 325 324 323 322 322 322 321 321 320 318 318 316 315 312 311 309 309 308 307 305 303 300 301 302 305 308 309 314 320 325 326 327 327 327 327 327 328 328 328 328 328 328 328
317 316 319 321 321 322 324 325 326 328 329 331 331 331 328 330 332 332 333 334 334 333 332 332 331 330 330 328 327 326 326 326 326 326 326 325 325 324 325 325 325 324 323 322 322 321 321 321 321 320 318 317 316 315 312 311 309 308 307 305 303 301 300 299 300 301 304 307 309 313 319 322 326 326 326 326 327 328 328 327 327 327 327 327 327
315 316 318 319 321 321 322 323 324 325 326 327 328 328 326 325 329 331 331 331 330 330 330 329 326 324 324 324 323 324 323 324 321 324 323 324 323 322 324 324 324 323 322 321 320 319 319 319 319 318 317 316 315 313 311 310 308 306 305 303 300 298 297 297 299 300 302 305 308 313 318 320 324 326 326 325 326 327 327 327 326 326 327 327 327
314 315 316 318 318 320 320 322 322 323 324 324 326 326 327 325 326 325 326 327 327 327 327 324 320 319 320 319 317 321 321 321 321 323 317 321 316 318 322 323 322 321 320 320 319 318 317 317 316 315 313 312 310 309 308 308 307 305 303 300 297 296 296 296 297 299 301 304 307 314 317 319 323 325 325 324 325 326 326 325 325 325 326 326 326
315 315 314 316 317 318 320 320 321 321 322 322 322 323 325 326 327 328 329 327 324 322 325 325 318 323 318 318 317 315 314 314 316 315 317 318 318 316 319 321 320 319 319 318 318 317 316 315 313 311 308 305 300 298 299 302 303 302 299 296 296 296 296 296 296 297 299 303 306 313 317 319 322 324 324 324 324 324 324 324 325 325 325 325 325
314 314 315 314 316 317 318 319 320 320 319 320 320 322 324 325 324 325 325 323 323 323 322 319 318 317 315 313 312 312 311 312 313 313 314 313 317 315 318 320 318 317 317 317 316 315 314 313 311 308 305 301 297 297 296 297 297 296 295 296 295 295 295 295 295 295 297 301 305 311 316 318 321 324 324 324 323 323 323 324 324 325 325 325 325
314 315 316 315 315 316 317 319 319 318 319 319 319 320 323 323 322 322 323 323 323 319 318 315 314 312 310 310 309 308 308 309 310 309 310 314 315 314 316 316 316 316 315 315 313 313 312 309 306 303 298 296 296 296 296 296 295 295 295 295 294 294 295 294 295 295 295 298 305 309 314 318 321 323 324 324 323 323 323 323 324 324 324 324 324
314 315 315 315 315 315 317 317 318 317 317 317 317 318 320 320 318 318 320 320 318 316 314 312 310 308 307 306 305 306 306 307 309 310 310 310 311 310 309 309 308 307 303 302 301 300 298 298 298 297 296 297 296 296 296 295 295 295 294 294 294 294 294 294 294 294 295 297 304 308 312 316 320 322 323 323 323 323 323 323 324 324 324 324 324
311 312 314 315 315 315 316 316 316 317 317 317 317 317 317 320 318 316 317 316 315 313 311 310 308 305 304 303 303 304 304 305 306 306 306 306 305 304 303 302 302 301 299 297 296 296 295 296 296 296 295 295 295 295 296 295 294 294 294 294 293 294 294 293 293 294 294 296 302 306 309 313 317 319 321 322 322 323 323 323 323 323 323 323 322
309 311 313 314 314 314 315 316 315 316 316 317 316 316 318 320 319 314 317 313 312 310 309 307 306 303 302 301 302 302 303 303 303 303 303 302 301 300 299 299 299 297 296 295 295 295 295 295 295 294 294 294 294 294 294 293 294 294 293 293 293 293 293 293 293 293 294 295 298 304 307 310 315 317 319 321 321 322 322 323 323 322 322 322 322
308 309 311 312 313 313 314 315 314 315 315 315 316 315 316 316 316 312 314 313 309 309 308 306 304 301 300 300 301 301 301 301 302 301 301 299 298 297 296 296 296 295 295 295 295 294 294 294 294 294 293 294 293 293 293 292 292 293 293 293 292 292 292 292 292 293 293 294 296 301 305 308 311 314 317 319 319 320 321 321 322 321 321 321 321
306 307 308 310 311 312 313 313 314 314 315 314 314 315 314 314 313 313 313 310 309 308 306 303 302 300 299 299 299 299 300 300 300 300 298 298 296 295 294 295 294 294 294 294 295 294 294 294 293 293 293 293 292 292 292 292 292 292 292 292 292 292 292 292 292 292 293 293 295 298 303 306 309 311 314 316 317 318 319 320 321 320 320 320 319
305 306 307 308 310 311 311 312 313 313 314 312 313 313 313 312 312 314 313 311 308 307 304 301 301 299 297 298 298 299 299 299 299 298 297 296 294 294 293 293 293 293 294 294 293 294 293 293 292 293 292 292 292 292 292 292 291 291 291 292 291 291 292 292 292 292 293 293 294 295 298 303 306 309 310 312 314 315 316 317 319 319 319 319 318
303 304 305 306 308 309 310 311 312 313 313 311 312 312 312 311 311 312 311 310 308 304 302 301 300 298 298 297 298 298 298 298 298 296 296 295 294 293 293 293 293 293 293 293 293 293 293 293 293 292 292 292 292 292 291 291 291 291 291 291 291 291 291 292 292 292 292 293 293 294 295 298 302 304 307 309 311 313 314 315 316 318 318 317 318
302 302 304 306 305 307 309 310 311 312 312 311 312 311 311 311 311 311 309 310 306 303 302 300 298 297 297 297 297 297 297 297 297 296 295 294 293 292 292 292 293 293 293 293 293 292 292 292 292 292 292 292 291 290 291 291 290 290 291 291 291 291 291 292 292 292 292 292 292 293 294 295 297 300 302 307 310 310 311 312 313 314 314 314 314
303 304 303 303 303 304 306 308 310 311 311 310 310 311 311 310 311 309 309 308 304 302 301 300 299 297 296 296 296 297 297 296 296 295 295 294 293 292 291 292 292 292 292 293 293 292 292 291 291 291 291 291 290 290 290 290 290 290 290 290 291 291 291 291 291 291 292 292 292 292 293 294 295 296 298 301 305 307 309 309 309 309 310 310 312
303 303 302 301 302 303 305 306 308 309 310 310 310 310 310 310 309 309 307 305 303 302 301 300 299 297 296 296 296 296 296 295 295 295 295 293 293 292 292 291 291 292 292 292 292 291 291 291 291 290 290 290 290 291 290 290 289 289 290 290 290 290 290 291 291 291 292 292 292 293 292 293 294 295 295 296 300 303 305 306 305 306 307 308 310
302 301 301 301 301 302 302 303 305 308 309 309 309 309 309 309 308 307 305 304 303 301 300 299 298 297 296 295 296 295 296 295 295 294 293 293 292 292 291 291 291 292 291 292 291 291 291 291 290 290 290 289 290 290 290 290 290 289 290 290 290 290 290 290 291 291 292 292 292 292 292 293 293 294 294 294 295 299 301 302 303 304 305 306 307
301 301 301 301 300 301 301 302 304 306 307 308 308 308 308 307 307 305 304 303 302 301 300 298 297 296 296 295 295 295 296 295 294 294 293 293 292 292 291 290 291 291 291 291 291 290 290 290 290 290 289 289 290 290 289 289 289 289 289 289 290 290 290 290 291 291 291 291 292 292 292 293 293 293 293 293 293 296 298 298 299 300 302 303 304
301 301 301 300 300 300 300 300 301 303 305 307 308 307 307 306 305 304 303 301 301 300 299 297 296 296 295 295 295 295 295 294 294 294 293 292 292 292 291 290 291 291 290 290 290 291 290 290 289 288 290 289 289 290 289 289 289 289 288 289 289 290 290 291 291 290 291 291 291 292 292 292 292 291 292 292 293 293 294 295 295 296 297 299 301
300 300 301 300 300 299 299 299 300 301 303 305 306 306 306 305 304 303 301 299 300 299 298 296 295 295 295 295 295 295 295 294 294 294 293 293 293 292 290 290 290 290 290 290 290 290 290 290 289 288 288 288 289 289 289 288 289 289 288 288 288 289 290 291 291 290 290 290 291 291 291 291 291 291 291 292 292 292 292 292 292 292 293 296 299
300 300 300 300 300 299 299 299 299 299 301 302 304 305 304 303 301 300 299 298 298 298 297 295 295 295 294 295 295 295 295 294 293 293 293 292 292 291 290 289 290 290 289 289 289 289 289 289 289 287 287 287 289 289 289 289 289 288 288 287 288 288 289 290 289 289 289 291 291 290 291 290 290 291 291 291 291 292 291 291 290 290 290 292 295
299 299 299 299 299 299 298 298 299 298 299 300 301 302 301 299 296 295 295 296 296 295 295 295 295 294 294 295 295 295 295 293 293 293 293 292 291 290 290 289 289 289 289 288 288 288 288 287 287 288 287 287 288 288 288 288 288 288 287 287 288 289 289 289 288 289 289 289 290 290 290 289 290 291 291 291 291 291 291 290 290 289 290 290 292
297 298 298 298 299 299 298 297 298 298 298 298 298 299 298 298 297 295 295 296 295 295 294 294 294 294 294 294 295 295 295 294 293 293 292 292 291 290 290 289 289 289 289 289 289 289 289 288 287 288 288 287 287 287 287 288 289 287 287 287 287 289 290 288 288 288 288 288 289 289 290 290 290 291 290 291 290 290 290 290 289 289 289 289 289
296 296 297 298 298 298 298 298 298 297 297 297 298 298 299 298 297 296 296 297 295 294 293 294 294 294 294 294 294 294 295 294 293 293 292 292 290 289 289 288 288 289 289 290 289 289 288 287 287 286 287 287 287 287 286 288 289 290 287 286 287 287 289 287 287 287 288 288 288 289 290 290 289 289 290 289 289 290 289 289 289 288 288 288 288
297 296 297 297 298 298 298 298 297 297 297 297 298 298 299 299 299 298 297 297 297 296 296 295 295 293 293 294 294 294 294 294 293 292 292 291 290 289 289 289 288 289 288 287 288 287 287 286 287 287 285 286 288 287 286 288 291 289 291 289 287 286 287 286 287 287 288 288 288 289 289 290 289 289 289 289 288 288 288 288 288 288 288 288 288
295 295 295 296 297 297 298 298 297 297 297 297 297 298 298 299 298 296 297 296 294 295 295 294 294 293 292 293 293 293 293 293 293 292 292 291 291 290 289 289 288 289 289 287 287 287 287 286 286 287 288 285 285 286 287 285 287 290 288 290 287 287 287 287 287 287 286 286 287 287 288 288 288 288 288 288 288 287 287 288 287 287 287 287 287
295 296 296 296 296 297 298 298 298 297 297 297 297 297 297 296 295 293 294 293 292 293 292 291 292 292 292 291 292 293 293 293 293 292 292 291 291 290 289 289 288 288 288 288 287 287 287 287 287 287 287 287 286 287 286 285 285 286 292 284 284 285 290 289 285 286 284 285 286 287 288 288 287 287 287 287 287 287 287 287 287 287 287 287 287
295 296 296 296 296 297 297 297 298 297 296 296 297 296 296 295 293 292 291 291 291 290 290 290 290 290 290 291 292 292 292 293 292 292 292 292 291 291 290 289 288 288 288 288 287 287 287 286 286 287 287 289 289 286 286 286 286 286 286 288 293 298 289 286 287 287 284 286 286 286 286 287 287 286 286 286 286 286 286 286 286 286 286 286 286
296 297 295 295 296 296 297 297 297 297 297 296 296 296 295 295 294 294 294 293 292 292 293 294 293 292 293 291 291 291 292 292 292 292 292 292 291 290 290 289 288 288 288 288 287 287 287 287 287 286 287 288 288 287 287 285 284 285 286 286 287 285 289 288 287 286 287 285 284 284 285 286 285 285 285 286 286 286 286 285 286 286 286 286 286
297 295 295 294 295 295 296 296 296 296 296 296 295 296 295 295 294 294 294 294 294 294 293 293 294 292 292 291 291 290 291 292 292 291 292 291 291 290 290 289 288 288 288 287 287 287 287 287 287 287 287 287 288 289 288 286 285 285 285 285 285 284 285 287 289 291 290 287 285 284 285 285 284 285 285 286 285 285 285 285 285 285 285 286 286
294 294 294 294 295 295 295 295 295 296 295 295 295 295 295 295 295 294 294 294 295 295 294 294 292 292 291 291 291 290 290 291 291 291 291 291 290 290 289 289 288 287 287 287 287 287 287 286 286 285 285 285 286 289 289 286 287 287 283 283 284 284 284 285 284 288 289 288 287 285 286 285 285 286 285 285 285 285 285 285 285 285 286 286 286
292 292 292 293 293 294 294 294 294 295 294 294 295 295 295 295 294 294 294 294 294 293 292 292 292 291 291 291 290 290 289 289 290 290 290 290 290 290 289 288 288 288 287 287 287 287 287 287 286 286 286 286 286 286 288 288 287 287 287 286 285 283 285 284 285 284 284 287 288 286 286 286 285 286 283 284 284 284 284 284 284 285 285 285 285
291 290 291 291 292 292 293 293 293 294 294 294 294 294 294 294 294 294 294 294 294 292 290 291 291 290 290 290 290 290 289 289 289 289 290 290 290 289 289 288 288 288 287 287 287 286 286 286 286 286 286 286 285 285 287 288 286 286 286 286 287 286 287 284 284 284 286 283 282 283 282 283 285 286 285 282 283 284 284 284 284 284 285 285 285
Wind_Speed
9 7 7 9 14 14 16 16 15 15 15 14 14 14 14 13 12 11 9 8 8 8 7 8 7 7 7 8 8 9 9 10 10 10 11 11 11 11 11 11 11 10 11 12 13 13 13 13 13 13 14 14 14 14 15 14 14 14 14 14 14 14 14 14 14 14 13 14 13 13 13 10 9 11 12 12 12 11 11 10 8 8 7 9 11
16 9 7 8 13 14 16 16 16 15 15 14 14 13 12 13 12 11 10 9 8 8 8 7 7 8 8 8 9 9 10 11 11 11 11 11 12 12 12 12 11 11 11 11 13 14 13 13 13 13 14 13 13 13 13 13 13 12 12 13 13 14 14 14 14 13 13 13 12 12 12 12 9 11 12 12 11 11 10 10 9 6 7 11 11
8 7 5 8 12 12 15 16 16 16 16 15 14 14 13 12 12 11 11 11 10 9 9 8 8 8 9 9 10 10 11 12 11 10 10 10 10 10 10 11 12 11 12 12 14 13 13 13 13 13 13 13 13 12 12 12 11 11 11 12 12 13 13 13 13 12 12 12 12 10 10 10 11 10 10 11 12 11 11 11 9 8 8 12 11
10 7 6 8 11 11 13 14 15 15 15 15 14 13 13 13 12 12 12 11 10 10 9 9 9 10 10 11 11 11 11 10 10 9 9 8 7 8 9 9 9 10 10 11 11 12 13 12 12 12 12 12 11 11 11 11 10 10 10 11 11 12 12 12 12 11 11 11 10 7 5 5 6 10 8 11 12 12 11 11 10 11 11 11 12
9 7 8 8 10 11 11 12 15 15 15 15 14 13 13 12 12 12 11 11 10 10 10 10 10 11 11 11 11 11 10 9 9 9 8 8 7 7 7 9 9 8 8 9 10 11 11 11 12 12 12 11 11 11 10 10 10 10 10 11 11 11 12 11 11 11 10 10 9 6 5 5 4 8 7 10 12 11 10 11 12 12 12 12 12
8 8 9 9 9 11 11 11 15 15 15 14 14 13 12 12 11 11 11 10 10 10 10 10 10 11 12 11 11 10 9 8 7 7 7 6 6 5 6 8 9 9 9 9 10 10 10 10 11 11 11 11 11 10 10 10 10 10 11 11 11 11 11 11 10 10 9 8 7 4 4 5 5 4 6 8 12 11 10 11 12 12 12 12 11
9 8 9 9 8 8 10 12 15 15 15 14 14 13 12 12 11 11 11 10 10 10 11 11 11 11 12 11 10 9 8 7 6 5 5 5 5 5 5 8 8 8 9 9 9 9 10 10 11 11 11 11 11 10 10 11 11 11 11 11 11 11 11 11 11 10 9 5 4 4 4 5 5 2 6 8 10 12 12 12 11 11 12 12 12
7 7 10 9 7 7 10 12 15 15 15 14 14 13 13 12 11 11 10 11 10 11 11 12 12 11 11 10 10 9 7 6 5 5 4 5 5 5 7 8 8 8 8 8 8 9 9 10 10 11 11 11 10 11 11 11 11 11 11 11 12 12 11 11 11 10 9 5 4 4 4 5 5 3 7 10 10 12 13 13 12 12 13 13 9
9 9 10 7 8 9 11 12 14 16 15 15 14 13 13 13 12 11 12 12 12 12 11 12 11 11 10 9 9 9 7 6 4 4 5 5 5 5 7 9 8 8 8 9 9 9 10 10 10 11 11 11 11 11 11 11 11 11 11 12 12 12 11 11 10 8 6 4 4 4 5 5 5 6 11 12 13 15 15 12 11 14 16 14 10
9 10 9 6 6 9 11 12 16 16 16 15 14 14 13 13 12 12 13 12 12 12 11 10 10 10 9 8 7 7 7 6 5 5 5 5 6 6 8 9 9 9 9 9 10 10 10 10 10 10 11 11 11 11 11 11 11 11 11 11 12 12 11 11 10 8 5 5 5 5 6 7 4 7 13 16 16 16 14 12 10 10 10 12 14
10 9 8 6 7 8 11 13 14 15 16 16 15 14 14 14 14 13 13 13 11 10 10 10 9 9 7 8 7 6 7 6 6 5 5 6 7 8 8 9 10 9 9 9 10 10 10 10 10 11 11 11 11 11 11 11 11 11 11 11 11 11 11 10 8 4 5 5 5 5 6 7 4 7 10 12 14 14 13 11 10 11 12 14 14
11 9 5 5 5 9 11 13 13 14 15 15 16 16 15 14 12 13 12 11 10 10 10 10 9 9 8 7 7 7 6 7 7 6 7 7 8 8 9 9 10 10 9 10 10 10 10 10 11 11 11 11 11 11 11 11 11 11 11 12 11 11 11 10 5 4 5 6 6 5 6 6 5 7 10 11 11 10 11 11 12 12 13 13 13
9 8 5 5 5 7 10 11 13 13 14 16 16 16 15 14 13 11 12 11 11 11 10 11 10 10 9 9 8 8 8 8 8 8 8 8 8 9 9 9 10 10 10 10 10 11 11 11 11 12 12 11 11 11 12 11 12 12 12 12 11 11 10 10 5 5 5 5 5 5 5 5 5 7 9 9 9 9 10 11 12 13 13 13 13
10 8 6 5 5 6 8 9 11 12 13 15 17 15 15 15 14 13 13 13 12 11 11 11 10 10 11 10 9 8 9 9 10 9 10 9 9 9 9 10 10 10 10 10 10 11 11 11 11 11 11 11 11 12 12 12 12 13 13 12 12 11 9 7 6 5 5 6 5 6 5 4 6 8 8 9 9 9 10 11 12 13 13 13 12
11 8 6 5 5 6 8 8 8 10 11 13 14 12 13 14 12 12 13 12 12 14 11 10 11 10 10 10 9 10 10 11 10 11 10 10 10 10 10 10 10 10 10 10 11 11 11 11 11 11 12 11 11 12 12 12 13 13 13 13 12 12 10 4 4 4 5 5 4 5 5 5 8 8 8 9 8 7 8 11 12 12 12 11 12
6 6 4 5 5 5 6 6 7 8 10 12 12 12 12 12 11 11 12 12 11 9 10 9 10 9 10 10 11 11 11 11 11 11 11 11 11 11 11 11 11 11 11 11 11 11 11 12 11 11 11 11 11 12 12 12 13 13 13 13 12 12 11 5 4 5 4 5 4 5 5 5 9 8 8 8 8 7 8 10 11 10 10 11 10
5 4 6 6 6 5 5 5 5 7 9 10 8 10 11 11 12 12 12 11 9 9 9 11 10 12 12 12 12 11 11 12 13 12 12 11 12 12 12 12 12 12 12 12 12 12 12 12 12 12 11 12 12 12 12 12 13 13 13 13 12 12 11 7 4 5 4 5 4 4 4 5 8 8 8 8 7 7 7 10 10 10 9 9 9
6 6 7 7 6 6 5 5 5 6 7 8 8 6 8 9 8 8 9 9 9 10 11 10 11 11 10 9 9 10 11 13 13 13 12 12 12 12 12 12 12 12 12 12 12 12 12 12 12 12 12 12 12 12 12 12 13 13 12 12 12 12 10 7 5 4 5 5 5 4 5 8 8 8 7 7 7 6 8 9 10 9 9 9 9
5 6 6 7 7 6 6 5 6 6 7 6 6 6 8 8 8 8 9 9 10 10 10 11 10 9 8 10 9 10 10 11 11 11 12 11 10 10 10 12 12 12 12 12 12 12 13 12 13 13 13 13 12 12 13 12 12 13 13 12 11 10 10 6 5 4 4 4 4 4 6 9 8 8 8 7 8 9 10 9 9 9 9 9 9
5 6 7 7 7 7 6 6 6 6 6 6 7 6 7 9 9 9 10 10 10 9 9 10 8 9 9 10 10 9 9 8 10 9 10 11 9 7 10 12 12 12 12 12 12 12 12 12 12 13 13 13 13 13 12 12 12 12 12 11 10 8 5 4 4 4 3 4 4 3 8 9 7 7 8 8 9 9 9 9 9 9 8 9 9
6 7 7 7 7 8 8 6 6 7 7 7 6 7 7 9 8 9 9 9 9 9 9 10 9 9 9 10 9 7 5 5 6 5 9 7 8 9 10 12 12 12 12 12 12 12 12 12 12 12 12 12 12 13 12 12 12 12 12 10 8 5 4 4 4 3 3 3 3 4 8 8 7 8 8 8 9 9 9 9 9 9 9 9 9
9 7 8 7 7 7 9 8 7 8 7 6 5 5 6 7 7 7 7 7 8 8 8 7 7 7 10 8 6 5 4 4 5 6 5 7 7 8 9 11 13 12 12 12 12 12 12 12 13 13 13 12 10 5 6 9 12 11 10 8 5 4 4 4 4 3 3 3 3 6 8 8 8 8 8 9 9 9 9 9 9 9 9 9 9
10 9 8 10 9 7 8 9 9 7 7 7 6 6 7 6 6 6 6 7 7 8 7 8 7 8 7 7 5 4 5 4 4 5 5 6 7 8 9 10 12 12 12 12 12 12 12 12 13 12 12 11 5 4 4 3 4 8 6 5 4 4 4 4 3 3 3 3 2 8 7 8 8 8 8 9 9 9 9 9 9 9 10 10 10
12 10 9 7 9 10 9 8 9 8 8 6 6 5 6 5 5 5 5 5 6 6 7 7 7 7 7 5 5 5 5 4 5 8 7 5 6 8 9 9 9 8 10 8 10 11 13 13 12 11 7 3 3 3 3 3 3 3 3 4 4 4 4 3 3 3 2 3 3 8 8 8 8 8 9 9 9 9 9 9 9 10 10 11 11
9 6 7 11 12 10 10 11 10 9 8 6 7 6 6 5 5 5 5 5 5 5 5 6 6 7 7 5 5 5 5 4 5 4 4 4 4 4 4 4 4 5 6 5 4 4 5 4 4 4 3 3 4 3 3 3 3 3 4 4 4 4 4 3 3 3 3 2 4 8 9 8 8 9 9 9 9 9 9 10 10 10 10 11 11
6 8 12 10 12 11 11 9 10 10 11 8 7 6 6 10 10 6 6 5 5 6 5 5 6 6 6 6 6 6 5 4 5 5 4 4 5 4 3 3 4 4 3 4 3 3 3 3 4 4 3 3 4 3 3 3 3 3 4 4 3 3 3 3 3 3 3 2 4 9 9 8 9 9 9 9 10 9 9 10 10 10 10 11 11
9 11 9 9 9 11 13 12 10 10 13 10 8 7 8 11 10 6 9 6 5 6 6 5 6 7 7 7 7 6 5 5 5 5 5 4 4 4 4 3 4 4 3 4 4 3 3 4 3 4 3 4 4 3 4 3 3 4 4 3 3 3 3 3 3 3 3 2 3 9 8 8 9 9 9 9 10 9 9 10 9 10 10 10 10
7 8 8 9 10 13 14 13 11 11 11 10 10 8 7 9 11 8 7 7 7 6 6 6 6 6 7 6 6 7 7 6 6 6 5 4 4 4 3 3 3 3 3 3 5 4 4 3 4 4 4 3 4 4 3 3 3 3 4 3 3 3 3 2 2 2 2 2 3 6 8 8 9 9 9 10 10 10 10 9 9 9 9 10 10
10 10 9 9 11 10 12 14 13 13 10 10 10 8 7 8 8 8 9 8 7 7 6 6 7 6 7 8 8 7 6 7 7 6 5 5 4 4 4 4 4 4 4 4 4 5 4 3 3 4 3 4 3 4 3 3 3 2 3 3 3 2 2 2 2 2 2 2 2 4 8 8 9 9 10 10 10 10 10 10 9 9 9 9 10
14 10 9 10 8 10 14 15 15 12 11 11 10 9 10 12 10 10 8 9 7 7 7 7 6 7 7 8 8 8 8 8 7 6 6 6 5 5 4 4 5 4 4 5 4 4 5 4 3 3 4 4 3 3 3 4 3 3 2 3 2 2 2 2 2 2 2 2 2 2 7 9 9 10 10 10 11 10 11 10 10 9 8 8 9
12 12 11 10 10 11 12 13 14 14 11 13 11 11 10 10 9 8 8 9 8 7 7 6 6 7 7 8 8 8 8 7 7 7 6 6 6 6 5 4 5 4 4 4 3 4 3 3 4 4 4 4 3 3 2 4 3 3 2 3 2 2 2 2 2 2 2 2 2 2 3 8 10 10 10 10 11 11 11 11 10 10 9 9 8
13 16 12 9 9 13 12 12 14 13 13 13 11 11 11 11 11 9 9 9 9 7 7 7 8 7 8 9 8 8 8 7 8 8 8 7 7 6 5 6 5 4 4 4 5 4 4 4 3 2 3 3 3 3 1 2 3 3 2 3 2 2 2 2 2 2 2 2 2 2 2 3 8 10 11 11 11 11 11 11 11 11 11 10 10
12 16 12 11 13 12 12 13 13 14 15 14 13 12 10 11 11 11 10 11 8 8 8 8 8 8 8 9 9 9 8 9 8 9 8 7 7 7 6 6 5 5 5 5 6 5 4 4 3 3 3 3 3 3 2 1 2 2 2 2 2 2 2 2 2 2 2 2 2 2 2 3 4 7 10 11 11 11 11 12 12 11 11 11 11
11 9 10 13 12 10 11 9 12 14 18 13 12 11 12 11 9 9 9 9 8 9 9 8 8 8 8 9 9 9 9 8 9 9 8 7 7 7 7 6 5 6 5 5 5 5 5 5 4 4 3 3 3 3 3 2 2 1 1 1 1 2 2 2 2 2 2 2 2 2 2 3 3 4 4 9 11 12 12 12 12 12 11 11 11
9 8 15 19 13 13 10 9 14 14 15 14 14 14 12 11 10 9 9 9 9 9 9 8 8 8 8 9 9 9 9 9 8 9 8 8 8 7 7 6 6 6 6 5 5 4 4 5 5 5 3 2 2 2 2 2 2 2 2 1 2 2 1 3 2 3 2 2 2 2 2 3 3 3 3 4 5 12 13 13 12 12 12 12 11
14 14 13 10 13 13 12 14 13 15 14 16 13 12 11 10 9 9 8 9 9 9 8 9 9 8 9 9 10 9 9 9 9 9 9 8 8 8 7 6 8 6 5 5 5 6 5 4 3 4 5 3 3 3 1 2 2 2 2 1 1 2 2 2 3 3 2 2 2 2 2 3 3 4 3 3 4 7 13 13 13 13 13 12 11
13 13 14 13 14 14 15 15 15 17 16 14 12 12 10 11 10 9 9 8 9 9 8 7 8 9 9 9 9 9 10 11 10 9 8 9 8 7 6 8 7 7 7 6 5 4 5 5 4 3 2 3 4 4 2 2 2 2 2 2 1 2 2 3 3 3 1 2 2 2 3 3 3 3 3 3 3 4 9 13 13 13 13 12 11
13 14 14 14 15 14 15 16 16 13 11 11 13 12 10 8 8 8 9 9 10 8 7 7 9 9 8 9 10 10 10 10 10 9 8 8 8 8 7 8 8 7 6 6 5 5 4 5 5 4 3 2 4 5 5 3 3 3 3 2 2 1 2 2 2 2 2 3 3 3 3 2 3 3 3 3 3 4 4 7 10 11 12 12 11
12 14 13 14 12 11 12 14 14 12 11 11 11 8 7 7 6 7 8 8 8 7 8 8 8 8 10 10 11 10 10 10 10 10 9 9 8 7 8 9 8 7 7 7 6 6 5 5 6 5 3 2 2 3 3 4 4 4 3 2 2 1 2 2 1 2 2 3 3 3 2 3 3 3 3 3 3 3 4 4 4 4 5 11 11
11 11 13 13 13 12 12 12 13 11 9 8 7 8 7 9 9 6 7 9 8 9 9 10 9 9 10 11 11 10 10 10 11 10 9 9 9 9 9 9 8 8 9 8 8 8 10 9 7 7 5 3 2 2 3 5 4 5 4 3 2 1 2 1 2 2 2 2 2 2 3 3 3 3 3 3 3 3 3 3 4 4 4 6 10
9 9 11 13 13 15 13 16 13 13 10 10 10 10 11 9 8 10 12 10 11 11 10 9 9 10 11 11 11 10 11 11 11 11 10 8 8 8 9 9 8 9 9 9 9 8 7 7 5 4 6 6 4 3 3 3 7 4 3 4 3 2 1 0 2 2 1 1 1 2 2 3 3 3 2 3 3 3 3 3 3 4 4 4 5
10 10 13 15 14 13 15 16 10 11 12 13 12 11 11 12 14 15 14 12 11 12 13 12 12 11 12 11 10 11 11 11 11 11 10 10 10 9 9 10 10 9 7 7 8 7 8 7 7 5 3 6 6 6 6 6 2 5 5 4 2 2 1 1 2 0 1 1 1 1 2 3 3 3 2 3 3 3 3 2 3 3 3 4 4
9 10 13 10 11 13 15 12 11 12 14 15 12 12 11 12 10 7 8 6 6 6 4 5 5 7 9 9 8 9 11 10 11 11 11 10 10 10 10 9 10 9 9 9 9 10 9 10 10 9 7 2 1 3 7 7 4 3 3 5 3 3 2 2 2 4 2 0 0 1 1 2 3 2 2 2 2 3 2 2 2 3 3 3 3
9 8 9 12 11 12 13 12 13 14 13 14 15 13 11 9 8 2 5 6 5 6 7 6 8 7 9 10 9 10 10 10 11 11 9 9 11 11 10 10 10 11 11 11 11 11 10 9 9 8 7 6 5 6 5 6 2 9 5 3 2 2 2 6 5 2 1 2 2 2 1 2 2 2 0 2 2 2 1 1 1 1 1 2 2
9 10 10 10 9 14 14 14 13 14 14 14 15 12 9 8 7 4 4 5 3 7 8 8 10 10 8 10 11 9 11 9 10 12 11 12 11 10 10 10 10 11 10 10 11 12 12 11 11 9 11 10 10 4 5 4 7 4 3 6 2 1 4 2 3 2 3 3 4 3 2 2 2 2 1 1 1 1 0 0 1 1 0 1 1
10 11 9 10 10 10 10 11 11 11 13 14 14 12 12 11 10 10 10 9 9 10 14 17 12 13 14 6 7 12 10 10 10 11 11 10 11 11 10 11 10 10 10 10 9 9 10 10 12 12 12 10 7 7 6 3 2 2 4 2 1 2 5 2 2 3 2 1 1 3 3 2 1 2 2 2 1 1 0 1 1 1 1 1 1
11 7 6 8 9 9 8 11 11 10 10 11 13 12 11 11 15 16 14 11 12 10 8 4 7 7 5 10 10 9 12 12 12 12 11 10 10 10 11 10 10 10 9 9 10 11 11 12 9 10 10 8 6 9 10 7 3 2 1 1 1 1 2 7 4 3 2 2 3 4 4 3 2 3 3 3 2 2 1 2 2 2 1 1 0
8 6 6 6 8 10 9 9 9 10 9 9 13 14 14 14 15 15 14 12 13 13 9 8 6 8 9 10 9 10 10 11 10 11 11 11 11 11 11 10 11 10 10 10 11 10 8 7 9 9 7 7 8 8 10 8 11 6 4 3 2 2 2 3 3 6 3 4 4 1 2 3 3 4 5 4 3 2 2 2 2 2 1 0 0
6 6 6 6 6 6 7 7 9 9 8 11 12 14 13 13 12 10 14 13 13 8 6 7 7 7 10 8 9 8 8 9 9 10 11 12 12 11 12 11 11 11 10 9 9 10 12 12 11 11 11 9 9 8 7 9 9 8 7 2 2 2 2 3 1 2 4 5 3 5 4 1 2 4 4 3 2 2 2 3 3 3 2 1 1
6 6 6 5 5 4 6 7 9 8 8 11 13 14 14 11 12 14 16 12 9 5 5 8 8 8 9 10 9 8 9 9 9 10 9 10 11 11 11 13 13 11 11 12 11 11 11 11 12 12 11 12 8 8 9 8 9 7 9 8 7 3 2 2 1 3 2 1 4 5 4 6 6 2 1 2 2 2 3 3 4 3 2 1 1
6 6 6 6 5 4 5 6 8 6 7 9 11 14 14 14 14 15 16 14 12 9 8 9 8 8 9 9 8 8 7 9 8 9 10 11 11 12 11 11 11 12 11 12 13 12 12 12 11 11 12 13 10 10 9 8 8 7 8 8 11 12 12 9 9 6 6 5 2 3 2 4 3 2 3 1 2 4 4 4 4 3 2 2 2
Wind_Direction
227 198 175 186 182 186 182 182 177 174 172 169 167 164 162 160 157 154 152 146 144 146 145 145 146 146 140 137 134 128 121 111 101 95 89 88 86 82 81 80 80 86 83 82 81 80 80 74 69 66 65 62 59 56 51 50 48 45 43 42 41 40 38 40 40 39 35 33 31 31 37 56 76 80 76 74 72 66 59 49 41 56 53 57 55
174 190 179 179 183 187 184 182 177 175 174 171 169 168 166 164 160 157 156 157 157 159 159 161 158 154 152 140 133 126 115 111 108 102 95 90 87 83 80 80 79 82 86 85 80 77 76 74 74 71 69 67 66 64 62 59 54 50 45 45 44 41 40 40 41 40 37 36 32 31 28 27 67 78 80 76 73 70 65 57 43 48 54 50 52
134 165 176 185 181 190 187 182 178 176 176 173 173 171 169 167 164 163 164 166 165 166 168 167 167 160 147 143 131 127 121 114 112 109 102 93 93 87 87 87 81 80 84 83 78 79 76 76 78 77 75 76 75 74 72 68 64 59 53 50 51 48 44 43 42 43 40 37 34 27 27 31 32 58 79 80 73 64 60 59 51 50 57 55 53
146 169 174 184 186 191 191 184 180 180 177 178 176 173 172 170 168 168 169 168 168 167 169 170 168 154 151 141 136 128 125 118 112 110 104 96 98 91 92 89 92 84 80 80 84 82 81 79 78 79 78 78 79 78 77 75 71 67 63 58 56 56 53 48 45 43 44 43 36 27 31 23 14 19 71 78 75 70 64 58 54 54 58 59 56
155 166 173 179 184 193 189 184 181 183 181 179 179 177 174 171 171 170 171 169 170 168 166 166 158 153 148 143 136 130 124 121 117 115 112 104 106 97 100 98 93 91 90 91 89 86 86 86 84 84 84 82 81 81 79 78 75 73 70 67 63 62 62 56 50 45 44 47 40 38 30 24 12 7 52 71 79 74 69 62 58 56 54 53 56
159 165 171 177 182 186 188 182 183 182 183 181 180 179 175 174 171 171 172 173 169 168 159 158 155 148 144 138 133 130 126 121 123 113 108 117 109 113 110 103 99 97 94 92 86 86 84 84 86 87 87 85 84 83 83 81 79 77 75 72 71 69 66 61 57 51 48 49 45 42 29 19 15 356 34 70 81 75 71 65 59 55 51 50 52
165 165 170 174 180 182 187 181 181 181 182 181 179 178 177 176 174 174 173 170 168 162 158 156 150 146 144 141 138 131 123 125 123 120 109 115 120 121 118 103 106 104 96 91 91 89 88 87 88 88 87 86 84 83 82 81 80 78 77 76 75 72 70 65 61 55 48 49 47 37 35 20 14 348 40 72 70 70 66 62 59 58 52 47 41
169 168 172 174 175 182 185 181 179 178 180 177 176 175 176 174 172 174 167 166 162 157 154 153 150 151 145 140 138 135 128 136 141 128 119 122 134 138 117 108 106 104 100 96 94 91 90 90 90 88 86 83 83 81 79 78 77 78 79 79 77 73 70 67 62 58 47 55 47 40 32 28 20 5 50 67 59 60 58 53 49 55 57 47 30
173 175 172 173 177 182 181 182 178 177 177 176 172 175 174 169 168 170 166 160 160 157 159 154 150 151 150 146 148 142 143 159 148 150 140 143 146 147 126 112 111 110 108 103 98 96 96 96 90 88 87 85 83 82 79 76 75 74 76 78 78 75 71 70 66 58 52 49 38 35 29 29 25 48 64 69 64 62 58 55 51 51 51 45 34
174 174 174 174 178 184 181 181 177 175 175 172 169 170 170 167 164 167 165 165 166 167 164 158 159 156 161 161 164 165 166 163 167 159 167 163 157 151 122 116 114 111 111 110 107 104 102 98 96 92 89 86 84 82 79 77 75 75 76 75 76 74 71 69 68 59 60 51 43 30 27 0 37 68 69 73 72 67 63 59 62 61 58 53 48
175 175 174 174 189 184 180 177 172 172 173 170 167 168 169 166 166 167 166 167 168 172 172 177 176 177 182 180 165 177 170 162 146 169 170 171 168 136 126 122 118 114 114 115 114 110 105 101 97 94 91 88 86 82 79 76 74 74 74 73 69 67 66 64 62 61 55 50 42 31 13 2 22 76 67 65 70 68 62 58 58 61 60 55 51
175 174 177 176 188 193 181 179 173 172 171 168 170 170 169 167 172 174 176 178 180 181 189 188 186 184 184 192 201 194 183 163 181 170 173 171 151 139 129 124 121 118 116 116 116 114 110 105 101 98 94 90 87 85 81 77 75 75 73 69 65 61 57 54 54 58 53 47 47 23 18 19 24 80 65 59 60 65 61 59 57 56 55 53 50
173 173 181 179 190 196 189 182 177 176 170 174 174 176 176 169 172 186 185 191 196 199 200 204 197 196 203 209 198 178 184 184 179 177 176 161 149 141 134 129 124 123 121 119 118 116 112 108 104 101 97 93 89 86 83 81 78 75 72 68 62 56 55 49 46 49 50 41 44 24 16 15 34 63 66 55 60 57 55 56 56 53 51 49 47
172 177 183 186 186 200 202 188 182 183 175 180 181 184 186 184 186 188 197 198 199 201 206 208 206 210 222 207 191 182 187 181 181 176 170 158 150 145 138 132 129 128 126 122 117 114 112 108 104 101 98 95 90 86 83 81 79 77 74 68 61 56 47 46 38 44 46 40 37 23 19 9 58 69 70 58 54 51 46 51 53 54 52 49 48
179 182 182 190 191 198 208 200 194 194 184 184 188 187 186 195 190 197 197 201 208 201 206 213 210 212 205 200 179 191 187 184 178 173 164 158 154 147 141 137 135 131 127 123 117 113 111 108 104 100 97 95 91 89 85 83 80 76 74 70 64 58 48 48 39 36 37 31 26 22 18 8 57 55 62 56 52 49 44 50 50 50 51 52 52
181 180 184 203 202 205 204 203 203 199 188 187 185 187 193 195 192 198 203 205 216 209 200 210 204 198 195 194 183 190 185 181 179 171 165 159 153 148 145 141 138 134 130 125 120 115 111 109 107 103 100 98 95 91 87 85 82 79 74 71 68 64 57 53 53 35 36 28 16 17 13 14 51 60 63 60 53 49 45 51 50 50 49 49 53
175 179 185 203 211 216 208 202 206 203 191 186 188 191 191 196 200 196 201 204 192 210 202 202 201 196 196 192 188 187 183 180 176 169 163 160 155 151 148 145 141 136 131 127 123 118 114 111 109 106 104 100 97 93 89 85 82 81 77 73 68 65 62 60 61 44 37 27 10 7 7 35 56 61 61 58 56 55 50 54 52 51 51 51 52
184 185 197 196 208 214 211 205 205 201 194 192 186 187 195 198 200 193 187 190 192 202 196 196 194 192 186 179 176 178 179 179 172 167 164 162 157 154 150 147 143 138 133 128 126 124 120 116 113 111 108 103 99 95 91 87 83 79 75 71 68 64 61 58 64 54 43 31 20 359 19 31 61 63 63 61 58 57 56 57 56 55 53 53 50
199 203 211 199 207 207 208 206 205 195 191 189 186 187 192 192 190 188 183 188 190 193 192 183 185 176 171 169 166 165 172 171 168 167 165 158 154 152 152 146 142 138 134 131 128 126 124 121 116 112 108 105 100 96 92 87 84 80 76 70 65 63 57 54 53 49 42 43 25 6 26 22 57 64 63 66 65 62 60 61 60 59 56 55 53
225 218 215 217 206 203 205 202 201 195 190 186 186 181 190 180 186 183 183 186 187 190 178 165 164 164 161 155 155 159 163 161 160 162 159 155 146 150 151 149 144 139 136 132 130 129 127 124 119 113 108 103 98 94 92 89 86 81 77 72 68 62 55 55 53 50 41 41 20 12 32 26 46 65 66 66 64 64 62 62 65 64 63 61 60
228 227 218 212 211 205 204 200 198 195 190 185 183 182 187 178 183 179 174 176 176 170 165 154 150 152 148 148 145 143 138 145 148 147 144 139 149 156 154 150 144 139 136 135 134 131 128 125 121 115 109 100 91 85 84 86 84 82 79 75 69 62 58 58 51 57 47 34 16 30 37 40 41 60 64 69 66 64 65 64 64 66 65 64 61
209 217 221 214 208 212 205 199 191 199 186 185 181 178 181 178 174 178 173 171 170 160 157 144 144 140 146 145 139 141 139 139 138 136 136 149 154 156 148 145 143 140 138 135 133 129 125 122 118 112 106 99 91 84 75 73 75 78 79 78 70 69 60 60 57 60 44 44 11 32 38 49 48 61 67 69 68 65 68 69 67 67 68 69 64
218 215 215 203 209 200 204 201 198 183 184 182 180 179 179 165 167 167 168 168 164 156 140 141 133 143 141 140 146 141 143 143 141 142 140 147 144 140 138 142 141 137 135 133 129 124 119 115 110 104 97 92 87 85 87 85 82 77 80 71 73 69 72 64 68 60 49 31 359 32 38 50 50 60 70 69 69 67 69 70 69 66 69 69 69
217 206 204 193 205 207 202 199 191 182 182 179 179 185 179 154 145 160 164 155 155 141 139 140 146 146 146 149 145 144 144 145 142 144 143 142 138 133 132 131 121 113 118 122 121 117 113 104 100 96 91 84 92 92 95 92 83 79 72 71 70 69 64 60 62 58 52 17 15 33 36 50 56 59 68 69 69 67 67 71 70 72 70 71 69
210 207 211 210 206 206 199 203 197 190 182 180 178 188 168 141 146 175 166 160 150 148 150 150 152 151 151 151 146 144 147 151 152 151 150 138 125 115 107 108 109 105 91 92 83 78 80 94 93 89 91 98 93 86 91 88 79 72 67 63 68 62 62 57 54 57 46 27 22 36 33 47 56 60 66 69 70 67 68 72 72 74 74 72 70
193 203 211 207 207 204 203 198 196 196 196 181 181 174 163 189 194 179 169 161 157 158 157 161 158 160 159 151 147 145 154 153 156 155 153 148 138 136 126 125 128 119 112 111 110 109 114 109 102 95 87 83 76 74 66 73 84 71 67 60 60 60 59 53 49 50 45 29 22 35 35 44 55 59 65 72 71 68 69 71 73 71 72 73 70
196 214 205 206 203 204 204 199 199 195 199 192 185 183 191 194 195 175 184 179 166 164 173 168 166 162 161 159 156 160 159 164 162 163 159 160 148 145 145 144 139 134 139 130 123 123 121 117 111 102 99 94 86 79 73 68 70 80 74 66 58 60 57 51 45 46 42 36 14 25 38 47 51 60 65 70 71 68 66 70 70 73 72 72 68
208 216 203 203 196 200 199 198 200 196 195 191 189 190 188 185 190 181 196 177 172 179 174 174 159 171 169 168 165 163 162 167 171 167 163 162 155 146 141 145 141 140 143 135 130 128 120 114 117 115 113 105 107 95 91 83 78 80 91 82 75 70 63 57 54 43 42 39 26 21 36 51 53 55 65 66 69 69 65 68 70 68 71 72 69
224 206 205 202 200 189 192 202 201 200 195 188 194 192 186 188 182 188 196 177 185 182 172 162 176 172 175 172 169 165 171 171 171 171 156 164 149 154 159 157 151 148 149 142 141 134 128 131 129 125 121 120 119 114 108 99 97 91 100 104 96 85 83 80 71 57 55 52 30 23 28 44 58 58 61 63 66 66 65 62 67 68 69 71 70
217 204 200 209 190 185 193 199 198 193 191 187 196 190 190 191 193 195 192 187 191 175 163 180 179 174 179 182 179 174 173 172 169 165 166 162 160 156 161 165 162 157 154 147 155 140 140 135 128 128 131 131 128 128 130 119 109 110 107 111 101 97 94 91 82 76 73 60 42 41 24 36 48 55 59 59 61 64 61 58 60 62 69 71 66
209 215 206 203 194 184 196 196 197 196 192 196 194 197 188 197 191 189 186 194 182 166 180 180 180 188 182 178 182 182 169 170 169 165 171 161 162 165 169 161 162 164 155 138 139 136 131 135 143 144 147 142 132 135 141 126 124 116 116 115 110 114 105 95 92 85 74 57 57 43 29 33 45 47 54 60 60 63 60 59 59 64 66 68 60
205 218 210 192 183 196 191 191 194 194 194 197 195 196 196 198 193 191 195 193 174 180 180 181 187 188 182 184 186 181 172 169 168 166 169 165 168 171 166 171 167 154 150 142 136 132 127 117 110 105 119 126 127 130 132 129 123 120 127 119 124 117 112 110 105 88 74 67 61 51 47 36 41 48 48 51 59 62 61 60 61 61 56 53 50
219 220 207 188 199 189 191 192 188 192 196 195 196 198 194 196 194 197 192 192 181 178 184 187 186 186 183 186 186 179 179 172 173 170 168 170 166 167 172 177 162 152 145 140 129 128 128 128 120 128 126 129 133 128 121 115 116 113 116 111 122 113 112 119 112 107 101 105 91 79 68 56 54 46 45 46 47 58 61 60 57 55 51 48 46
218 214 193 206 199 198 197 186 190 193 199 195 195 196 197 196 196 194 191 182 184 184 189 186 184 184 184 184 184 185 180 176 167 170 169 167 170 176 172 166 160 152 143 146 143 146 141 142 144 149 149 158 156 144 149 136 110 105 103 104 106 108 120 122 121 117 131 116 111 89 82 75 66 66 55 47 43 53 55 55 54 52 49 45 44
219 204 204 213 192 199 190 193 194 195 195 197 197 200 195 195 193 192 187 185 183 190 188 182 186 186 181 185 187 184 181 173 174 168 171 169 170 173 176 167 153 152 150 155 143 142 145 152 158 154 146 153 154 150 157 137 140 138 133 147 139 132 140 132 134 132 130 123 110 90 84 81 78 82 68 70 46 48 51 52 50 47 45 41 41
215 214 215 204 204 200 194 202 191 197 197 199 196 195 194 191 189 192 186 185 188 194 187 187 186 181 187 184 185 181 175 177 176 175 170 176 174 175 172 154 157 153 149 146 146 151 154 149 165 163 152 168 167 161 148 142 139 132 142 150 147 157 146 143 136 129 126 125 97 95 85 83 78 76 72 69 65 49 51 50 46 42 38 34 33
217 214 211 203 208 200 200 202 195 198 198 196 194 196 190 191 189 185 185 182 195 194 188 181 183 189 189 184 178 180 180 180 179 176 172 173 176 173 162 158 156 154 151 149 154 152 155 154 161 187 218 159 173 156 154 154 138 130 134 136 148 160 154 140 130 123 139 107 110 106 100 87 89 88 78 77 71 71 54 52 47 41 32 30 28
220 218 214 207 208 201 203 204 207 201 199 196 196 193 190 183 184 186 184 190 198 194 186 182 194 189 182 188 176 183 184 179 174 175 178 177 174 166 157 159 157 152 147 153 155 150 155 166 163 186 186 172 177 170 163 153 138 134 124 121 134 157 138 133 117 120 135 128 125 114 105 111 98 91 88 82 80 72 69 56 52 44 33 27 27
216 215 211 213 209 204 202 208 207 199 198 199 197 191 183 187 174 178 189 197 197 194 188 193 192 186 191 184 179 186 179 175 175 175 177 173 170 166 162 162 158 154 149 153 154 163 164 172 177 171 192 222 200 181 148 145 132 118 105 92 114 118 130 109 100 119 119 132 132 128 135 107 104 93 88 82 78 75 65 56 47 42 35 27 27
220 212 212 212 210 205 205 206 203 191 191 183 177 184 179 184 178 166 199 208 196 194 195 197 186 192 189 186 185 185 174 175 177 177 177 173 171 168 163 161 160 156 158 160 170 177 175 169 185 175 169 183 215 167 142 139 105 99 90 80 63 95 129 103 81 90 105 128 135 149 123 123 106 98 87 86 84 76 69 59 48 41 37 29 28
230 214 215 214 209 207 198 211 201 192 184 180 184 181 184 183 191 200 207 191 194 190 193 196 194 196 188 190 187 181 176 178 179 174 181 169 170 160 158 165 166 167 169 178 170 165 167 171 153 171 168 169 187 173 177 172 142 103 89 80 83 44 82 151 72 78 72 87 126 135 124 116 104 94 86 84 79 70 69 57 45 34 28 20 23
231 210 215 214 210 208 207 214 188 192 195 193 192 193 195 190 186 194 194 189 187 187 197 192 196 195 194 193 189 183 178 180 177 178 174 173 166 167 170 170 168 175 169 149 155 160 163 165 161 166 211 191 188 179 176 163 186 174 154 153 96 103 85 243 242 345 60 48 64 112 129 118 109 103 98 87 74 73 67 59 47 36 29 23 19
244 216 224 215 210 207 216 209 196 197 202 199 193 201 199 201 202 207 201 199 212 222 231 201 186 191 195 194 190 186 184 182 177 177 179 175 172 169 175 167 174 162 159 166 166 173 176 174 178 178 167 224 228 175 193 234 140 128 116 120 169 166 181 237 240 247 261 248 308 151 129 113 104 87 86 96 87 72 63 50 44 36 30 23 21
251 247 227 218 215 215 214 202 203 202 202 202 204 206 200 201 208 141 182 195 190 171 187 177 190 186 196 191 195 190 183 184 179 177 176 178 175 177 170 174 174 175 170 163 173 177 173 179 183 196 171 159 199 196 213 212 207 148 173 225 125 186 181 205 191 165 176 245 228 184 173 134 112 102 138 130 100 73 65 59 47 48 30 23 20
246 245 233 221 216 217 211 205 205 201 202 200 200 190 174 168 155 88 102 118 98 163 180 206 196 191 190 194 194 176 188 184 175 182 183 181 181 179 175 175 172 177 174 173 175 182 182 183 176 176 189 187 182 183 191 196 230 301 133 127 112 227 228 113 140 176 162 184 216 217 192 173 153 146 176 158 118 86 55 346 355 352 349 9 29
251 245 233 231 226 225 212 209 209 204 203 199 192 182 188 179 164 171 177 185 190 182 195 200 178 183 198 148 151 192 181 185 185 185 189 182 181 180 174 173 177 176 183 180 173 169 183 179 189 189 194 224 185 159 175 200 256 224 271 343 295 184 157 183 174 187 145 231 209 216 234 202 169 190 199 190 189 132 196 308 286 293 306 333 14
266 269 257 246 238 235 217 209 208 207 203 196 186 186 190 191 194 197 197 193 199 212 211 180 185 193 161 182 189 175 187 187 187 185 185 182 176 177 179 179 177 178 177 175 179 185 180 188 178 194 201 192 165 181 186 172 138 236 226 283 53 352 103 140 198 79 192 157 210 200 219 204 210 224 211 210 207 195 206 254 255 261 272 273 14
287 309 274 258 239 234 219 210 209 209 196 188 190 194 197 199 200 204 205 207 210 213 186 194 172 172 187 186 184 190 189 192 183 185 184 181 179 180 179 176 177 181 177 187 184 179 176 182 189 195 193 197 197 197 180 169 178 173 164 159 78 74 34 27 100 170 151 167 177 193 269 232 232 218 212 215 209 201 250 251 266 272 258 208 162
302 293 285 268 253 245 232 216 213 204 192 186 193 199 203 203 205 205 212 219 218 215 172 175 176 175 186 186 190 187 188 194 192 185 187 185 186 181 176 178 178 179 183 185 187 178 182 176 179 186 196 198 204 211 171 185 202 166 150 151 117 83 54 33 66 57 161 178 204 171 181 165 271 235 212 230 218 212 242 263 276 272 263 203 162
326 316 312 303 282 254 231 219 221 206 195 191 192 197 202 201 207 212 218 219 212 188 160 177 183 179 192 192 188 181 187 188 192 191 188 190 188 183 184 184 184 178 182 187 180 179 184 187 188 190 189 198 195 203 200 190 199 169 185 149 154 137 108 126 106 126 29 308 203 184 180 176 207 180 151 190 214 228 226 258 262 257 245 211 155
346 348 348 347 328 303 267 245 237 224 204 200 197 202 200 201 210 212 215 216 208 191 177 191 184 182 197 194 188 186 178 190 185 193 193 191 193 192 188 189 186 187 187 183 188 183 182 183 184 187 194 195 191 195 207 196 188 178 185 179 177 174 173 175 181 188 168 159 156 230 188 199 203 231 161 162 233 236 242 243 237 227 212 191 162